Starlink 32552

operational
NORAD ID: 62174 Int'l Des: 2024-225 Owner: SPXS Country: US Constellation: starlink
LEOCIRCULAR

About Starlink 32552

Description loading...

Live Position

Loading 3D Globe...

Upcoming Passes

Altitude History

Altitude vs Time

uPlot chart will show altitude changes over time

Two-Line Element Set

1 62174U 24225M 26034.87992230 .00005370 00000-0 45740-3 0 9998
2 62174 69.9991 249.5825 0002921 267.2511 92.8314 14.98339058 64814
Epoch: Feb 3, 2026 • Age: 15 hours

Current Status

Altitude 575.8 km
Velocity 7.58 km/s
Sub-Earth Point 27.87°N, 99.19°E
Launch Date Nov 30, 2024
Age 1.1 years
Type internet

Technical Details

Classification Payload
Mass 730.00 kg
Dry Mass 700.00 kg
Total Mass 730.00 kg
Length 0.30 m
Diameter 4.10 m
Span 29.00 m
Shape Box + pan
Manufacturer SPXS
Bus Type Starlink V2M
Phase Status In Orbit
Owner/State SPXS/US

Large Constellations

Loading constellations...